www.pogodaiklimat.ru

Погода и климат >> Архив погоды >> Мексика >> Tapachula City


ПОГОДА в Tapachula City

  • Прогноз погоды в Tapachula City
  • Монитор погоды в Tapachula City
  • Климат города

АРХИВ ПОГОДЫ в Tapachula City

Время (UTC), дата Ветер
(напр.,м/с)
 
Видим.   Явления Облачность Т
(С)
Тd
(С)
f
(%)
Тe
(С)
Тes
(С)
Комфортность P
(гПа)
Po
(гПа)
Тmin
(С)
Tmax
(С)
R
(мм)
R24
(мм)
S
(см)
03 13.07 СВ 2 15 км слабая морось 6/6 900 м
[Cb cap]
+26.0 +23.8 88 +36 +36 очень
душно
1011.5 998.2 1
06 13.07 С 2 15 км 4/4 1000 м
[Sc diur, vesp]
+26.4 +23.4 84 +36 +36 очень
душно
1012.2 998.9 1
09 13.07 СВ 2 15 км 6/6 1500 м
[Sc diur, vesp]
+26.0 +23.5 86 +35 +35 очень
душно
1011.6 998.2
12 13.07 СВ 2 30 км 4/0
[Ci]
+25.4 +22.6 85 +33 +34 очень
душно
1011.1 997.7 +23.8 +36.0
15 13.07 ЮВ 1 30 км 4/0
[Ci sp]
+30.1 +24.3 71 +42 +54 опасность
перегрева
1012.2 998.7
18 13.07 Ю 2 30 км 6/6 1020 м
[Cu med, cong]
+34.1 +24.6 58 +47 +56 опасность
перегрева
1009.8 996.4 +23.8 +34.5
21 13.07 ЮЗ 2 25 км гроза без осадков 9/9 900 м
[Cb cap]
+34.1 +24.5 57 +47 +48 опасность
перегрева
1008.5 995.3
00 14.07 ЮВ 2 25 км гроза без осадков 8/8 600 м
[Cb cap]
+29.8 +24.1 72 +42 +42 опасность
перегрева
1008.4 995.2 +23.8 +35.4
03 14.07 С 1 10 км 9/3 1500 м
[Sc Ac und]
+26.5 +23.5 84 +36 +36 очень
душно
1011.6 998.4
06 14.07 СВ 1 10 км 3/0
[Ac und]
+25.7 +22.4 82 +34 +34 очень
душно
1011.4 998.1 +23.8 +35.4
09 14.07 СВ 1 10 км ясно +25.6 +19.7 70 +31 +31 очень
душно
1009.4 996.0
12 14.07 СВ 1 40 км 3/0
[Ci]
+23.8 +19.8 78 +29 +29 душно 1009.6 996.1 +23.5 +35.4
15 14.07 З 1 40 км 1/0
[Ci fib]
+30.2 +21.7 60 +38 +51 опасность
солнечного
удара
1010.1 996.6
18 14.07 З 2 35 км 3/3 1000 м
[Cu med, cong]
+33.5 +24.1 58 +45 +61 опасность
перегрева
1008.5 995.1 +23.5 +36.0
21 14.07 З 3 30 км 5/5 1000 м
[Cu med, cong]
+33.9 +27.7 70 +54 +59 опасность
перегрева
1007.3 994.0
00 15.07 З 2 30 км 3/0
[Ac As]
+30.3 +25.8 77 +45 +45 опасность
перегрева
1007.0 993.8 +23.5 +37.6
03 15.07 В 1 20 км 1/0
[Ac trans]
+28.5 +25.7 85 +42 +42 опасность
перегрева
1010.8 997.6
06 15.07 С 1 15 км ясно +27.6 +24.8 85 +39 +39 очень
душно
1011.9 998.6 +23.5 +37.6
09 15.07 СВ 1 15 км 3/3 1020 м
[Cu med, cong]
+25.9 +21.4 76 +33 +33 очень
душно
1009.4 996.1
12 15.07 С 1 30 км 6/0
[Ci]
+25.1 +20.1 74 +31 +31 очень
душно
1009.0 995.6 +25.1 +37.6
15 15.07 ЮВ 1 30 км ясно +29.9 +24.4 72 +42 +55 опасность
перегрева
1011.8 998.4
21 15.07 З 3 30 км 5/5 1000 м
[Cu med, cong]
+34.0 +26.1 64 +50 +56 опасность
перегрева
1009.2 995.9
00 16.07 З 2 30 км 5/5 600 м
[Cb cap]
+29.6 +24.5 74 +42 +42 опасность
перегрева
1007.9 994.7 +25.4 +37.8
03 16.07 С 2 10 км 4/4 1500 м
[Sc]
+27.4 +24.8 86 +39 +39 очень
душно
1010.8 997.6
12 16.07 СЗ 1 30 км ясно +25.2 +23.3 89 +34 +34 очень
душно
1011.8 998.3 +24.6 +37.8
15 16.07 ЮВ 1 40 км 3/0
[Ac und]
+28.2 +25.4 85 +41 +52 опасность
перегрева
1013.3 999.8
18 16.07 ЮЗ 2 35 км 1/1 1020 м
[Cu hum]
+33.8 +24.3 58 +46 +66 опасность
перегрева
1010.8 997.4 +24.6 +35.5
21 16.07 ЮЗ 2 25 км 4/4 1020 м
[Cu med, cong]
+34.7 +24.7 56 +48 +55 опасность
перегрева
1009.0 995.7
00 17.07 З 1 30 км 4/0
[Ci]
+31.1 +24.7 69 +44 +44 опасность
перегрева
1008.2 995.0 +24.6 +37.2
03 17.07 Ю 1 15 км 3/0
[Ac und]
+28.7 +24.4 78 +41 +41 опасность
перегрева
1009.2 996.0
06 17.07 Ю 1 15 км 3/0
[Ac und]
+27.1 +23.7 82 +37 +37 очень
душно
1011.2 998.0 +24.6 +37.2
09 17.07 Ю 1 15 км ясно +25.5 +22.6 84 +34 +34 очень
душно
1012.4 999.0
12 17.07 Ю 2 20 км 4/0
[Ac und]
+24.5 +21.9 85 +31 +32 очень
душно
1011.6 998.2 +23.8 +37.2
03 18.07 С 2 30 км 4/0
[Ac As]
+27.9 +25.4 86 +41 +41 опасность
перегрева
1013.7 1000.4
06 18.07 В 2 25 км 3/0
[Ac As]
+26.7 +24.5 88 +38 +38 очень
душно
1014.9 1001.6 +23.8
09 18.07 В 2 20 км 6/0
[Ac As]
+26.0 +23.8 88 +36 +36 очень
душно
1013.3 999.9
12 18.07 В 3 25 км 8/3 1000 м
[Cu med, cong Ac As]
+25.1 +21.1 78 +32 +32 очень
душно
1014.0 1000.5 +24.5
15 18.07 СВ 3 30 км 6/0 2000 м
[Ac As]
+29.6 +23.3 69 +40 +45 очень
душно
1014.0 1000.5
18 18.07 С 5 30 км 5/4 1000 м
[Cu med, cong Ci]
+34.5 +24.6 56 +47 +54 опасность
перегрева
1012.9 999.5 +24.5 +36.3
21 18.07 СЗ 3 30 км 6/5 900 м
[Cb cap Ac As]
+31.2 +23.0 62 +41 +46 опасность
перегрева
1012.2 998.9
00 19.07 С 3 30 км 9/5 600 м
[Cb cap Ac As]
+27.4 +25.5 89 +40 +40 очень
душно
1011.7 998.4 +24.5 +37.0
03 19.07 СВ 2 15 км 6/0 2000 м
[Ac und]
+27.0 +22.6 77 +36 +36 очень
душно
1012.4 999.1
06 19.07 С 2 15 км 5/0 2000 м
[Ac und]
+26.8 +22.6 78 +35 +35 очень
душно
1013.1 999.7 +24.5 +37.0
09 19.07 СВ 3 15 км ясно +25.8 +21.6 78 +33 +33 очень
душно
1011.5 998.1
12 19.07 СВ 2 30 км ясно +24.8 +21.4 81 +31 +32 очень
душно
1011.5 998.0 +24.4 +37.0
15 19.07 Ю 2 30 км 4/0
[Ci sp]
+29.5 +25.8 81 +44 +54 опасность
перегрева
1012.5 999.0
18 19.07 ЮВ 2 30 км 5/0
[Ci sp]
+34.1 +25.5 61 +49 +69 опасность
перегрева
1014.0 1000.6 +24.4 +34.6
21 19.07 Ю 2 30 км 6/6 1020 м
[Cu med, cong]
+34.7 +25.3 58 +49 +54 опасность
перегрева
1012.7 999.4

 

Местоположение метеостанции Tapachula City (Мексика): широта 14.92 долгота -92.25 высота над уровнем моря 118 м.

В архиве по умолчанию представлена погода в Tapachula City за последнюю неделю. Архивные данные за месяц целиком и за предыдущие месяцы, начиная с января 2011 года, Вы можете получить, выбрав интересующий диапазон дат из раскрывающегося списка и нажав кнопку "Ввод!".


*Определитесь, кто Вы:
робот инопланетянин человек

Внимание! Время в таблицах - всемирное. Для получения местного времени необходимо прибавить поправку, которая в Tapachula City равна -6 ч.

Смотрите также архив погоды в соседних городах и на ближайших метеорологических станциях:

Погода в Huehuetenango (Гватемала) (96 км)
Погода в Comitan (Мексика) (148 км)
Погода в San Jose (Гватемала) (191 км)
Погода в Guatemala (Гватемала) (191 км)
Погода в Sn. Cristobal Las Casas (Мексика) (208 км)
Погода в Tuxtla Gutierrez (Мексика) (224 км)
Погода в Arriaga (Мексика) (229 км)
Погода в Nueva Ocotepeque (Гондурас) (335 км)
Погода в Flores (Гватемала) (337 км)
Погода в Salina Cruz (Мексика) (343 км)

Пояснения к столбцам:

Ветер - указаны скорость ветра в м/с - средняя за 10 мин, порывы в срок и между сроками (в фигурных скобках) и направление, откуда дует ветер: С - северный, СВ - северо-восточный, В - восточный, ЮВ - юго-восточный, Ю - южный, ЮЗ - юго-западный, З - западный, СЗ - северо-западный.
Видимость - горизонтальная дальность видимости в метрах или километрах. При видимости от 1 до 10 км при отсутствии осадков обычно наблюдается дымка, при ухудшении видимости до 1 км и менее - туман. В сухую погоду видимость может ухудшаться дымом, пылью или мглою.
Явления - указаны атмосферные явления, наблюдавшиеся в срок или в последний час перед сроком; фигурными скобками обозначены явления, наблюдавшиеся между сроками (за 1-3 часа до срока); квадратными скобками обозначены град или гололедные отложения с указанием их диаметра в мм.
Облачность - указаны через наклонную черту общая и нижняя облачность в баллах и высота нижней границы облаков в метрах; квадратными скобками обозначены формы облаков: Ci - перистые, Cs - перисто-слоистые, Cc - перисто-кучевые, Ac - высококучевые, As - высокослоистые, Sc - слоисто-кучевые, Ns - слоисто-дождевые, Cu - кучевые, Cb - кучево-дождевые. Подробнее классификацию облаков см. в Атласе облаков (PDF).
T - Температура воздуха - температура, измеренная на высоте 2 м над землей.
Td - Температура точки росы - температура, при понижении до которой содержащийся в воздухе водяной пар достигнет насыщения.
f - Относительная влажность воздуха - влажноcть воздуха, измеренная на высоте 2 м над землей.
Te - Эффективная температура - температура, которую ощущает одетый по сезону человек в тени. Характеристика душности погоды. При расчете учитывается влияние влажности воздуха и скорости ветра на теплоощущения человека.
Tes - Эффективная температура на солнце - температура, которую ощущает человек, с поправкой на солнечный нагрев. Характеристика знойности погоды. Зависит от высоты солнца над горизонтом, облачности и скорости ветра. Ночью, в пасмурную погоду, а также при ветре 12 м/с и более поправка равна нулю.
P - Атмосферное давление - приведенное к уровню моря атмосферное давление.
Po - Атмосферное давление - измеренное на уровне метеостанции атмосферное давление.
Tmin - Минимальная температура - минимум температуры воздуха на высоте 2 м над землей.
Tmax - Максимальная температура - максимум температуры воздуха на высоте 2 м над землей.
R - Количество осадков - Количество выпавших осадков за период времени, мм. При наведении курсора мыши на число - период времени, за который выпало указанное количество осадков.
R24 - Количество осадков - Количество выпавших осадков за 24 часа, мм.
S - Снежный покров - Высота снежного покрова, см. При наведении курсора мыши на число - состояние снежного покрова и степень покрытия местности в баллах.